SUNNYSIDE Weather Reports


Display with metric or nautical units.
time (UTC)temp
F
wind
direction
speed
MPH
gust
MPH
rain 1hr
in
rain 24hr
in
rain mn
in
humidity
%
barometer
mb
20260903175530 70 138 0.0 3.0 0.00 0.00 0.00 56 981.8
20260903175030 70 142 0.0 4.0 0.00 0.00 0.00 56 982.0
20260903174530 70 123 0.0 6.0 0.00 0.00 0.00 56 982.1
20260903174030 70 126 1.0 6.0 0.00 0.00 0.00 56 982.2
20260903173529 70 139 0.0 5.0 0.00 0.00 0.00 56 982.4
20260903173029 70 84 2.0 5.0 0.00 0.00 0.00 55 982.4
20260903172534 70 148 0.0 5.0 0.00 0.00 0.00 56 982.4
20260903172030 70 127 0.0 5.0 0.00 0.00 0.00 56 982.6
20260903171528 70 131 2.0 6.0 0.00 0.00 0.00 56 982.8
20260903171028 70 130 2.0 4.0 0.00 0.00 0.00 56 982.8
20260903170527 70 140 2.0 4.0 0.00 0.00 0.00 57 982.9
20260903170030 69 111 0.0 4.0 0.00 0.00 0.00 57 982.9
20260903165527 69 96 1.0 7.0 0.00 0.00 0.00 57 983.0
20260903165026 69 134 2.0 7.0 0.00 0.00 0.00 57 983.0
20260903164526 69 128 1.0 5.0 0.00 0.00 0.00 57 983.2
20260903164026 69 101 3.0 6.0 0.00 0.00 0.00 57 983.1
20260903163527 69 123 1.0 7.0 0.00 0.00 0.00 57 983.1
20260903163026 69 102 2.0 7.0 0.00 0.00 0.00 58 983.2
20260903162528 69 101 0.0 4.0 0.00 0.00 0.00 57 983.2
20260903162030 69 117 2.0 4.0 0.00 0.00 0.00 57 983.2
20260903161526 69 138 1.0 3.0 0.00 0.00 0.00 57 983.0
20260903161025 69 152 0.0 3.0 0.00 0.00 0.00 58 983.3
20260903160527 69 138 0.0 3.0 0.00 0.00 0.00 57 983.1
20260903160025 69 138 1.0 4.0 0.00 0.00 0.00 57 983.1
20260903155523 69 146 0.0 7.0 0.00 0.00 0.00 57 983.1
20260903155023 69 129 2.0 7.0 0.00 0.00 0.00 57 983.0
20260903154526 69 151 1.0 7.0 0.00 0.00 0.00 58 983.1
20260903154022 69 132 2.0 7.0 0.00 0.00 0.00 58 982.8
20260903153521 69 86 2.0 8.0 0.00 0.00 0.00 59 982.9
20260903153021 68 96 3.0 8.0 0.00 0.00 0.00 58 982.9
20260903152520 68 96 1.0 6.0 0.00 0.00 0.00 59 982.9
20260903152020 68 73 1.0 6.0 0.00 0.00 0.00 61 983.0
20260903151517 68 126 0.0 4.0 0.00 0.00 0.00 61 983.0
20260903151016 67 106 0.0 5.0 0.00 0.00 0.00 62 983.2
20260903150515 67 99 0.0 4.0 0.00 0.00 0.00 63 983.1
20260903150014 66 123 0.0 4.0 0.00 0.00 0.00 64 982.9
20260903145515 66 72 1.0 4.0 0.00 0.00 0.00 64 982.6
20260903145011 65 12 0.0 4.0 0.00 0.00 0.00 65 982.4
20260903144517 65 73 2.0 6.0 0.00 0.00 0.00 66 982.0
20260903144008 64 116 1.0 6.0 0.00 0.00 0.00 67 982.0
20260903143506 64 77 0.0 6.0 0.00 0.00 0.00 67 982.0
20260903143008 64 50 1.0 6.0 0.00 0.00 0.00 67 982.2
20260903142506 64 98 0.0 3.0 0.00 0.00 0.00 68 982.4
20260903142003 63 63 0.0 3.0 0.00 0.00 0.00 68 982.4
20260903141502 63 101 1.0 3.0 0.00 0.00 0.00 68 982.6
20260903141002 63 122 0.0 2.0 0.00 0.00 0.00 69 982.6
20260903140602 63 128 0.0 3.0 0.00 0.00 0.00 69 982.7
20260903140100 62 105 1.0 4.0 0.00 0.00 0.00 69 982.9
20260903135558 62 111 1.0 6.0 0.00 0.00 0.00 69 982.8
20260903135057 62 89 1.0 6.0 0.00 0.00 0.00 70 982.9
20260903134603 61 130 1.0 4.0 0.00 0.00 0.00 70 982.9
20260903134055 61 163 1.0 4.0 0.00 0.00 0.00 70 982.8
20260903133555 60 94 0.0 4.0 0.00 0.00 0.00 71 983.0
20260903133054 60 94 0.0 4.0 0.00 0.00 0.00 70 983.0
20260903132553 60 360 0.0 3.0 0.00 0.00 0.00 71 982.9
20260903132053 59 124 0.0 1.0 0.00 0.00 0.00 71 982.8
20260903131554 59 124 0.0 1.0 0.00 0.00 0.00 71 982.8
20260903131052 59 124 0.0 1.0 0.00 0.00 0.00 71 982.9
20260903130551 58 127 0.0 2.0 0.00 0.00 0.00 71 982.9
20260903130052 58 127 0.0 2.0 0.00 0.00 0.00 71 982.9
20260903125552 57 119 0.0 2.0 0.00 0.00 0.00 71 982.9
20260903125052 57 140 0.0 1.0 0.00 0.00 0.00 71 982.8
20260903124552 56 140 0.0 1.0 0.00 0.00 0.00 71 982.8
20260903124051 56 140 0.0 1.0 0.00 0.00 0.00 71 982.8
20260903123551 56 140 0.0 1.0 0.00 0.00 0.00 71 982.8
20260903123051 55 144 0.0 0.0 0.00 0.00 0.00 71 983.0
20260903122554 55 144 0.0 0.0 0.00 0.00 0.00 71 983.1
20260903122051 55 144 0.0 0.0 0.00 0.00 0.00 71 983.0
20260903121551 55 144 0.0 0.0 0.00 0.00 0.00 71 983.1
20260903121054 55 144 0.0 0.0 0.00 0.00 0.00 71 982.9
20260903120550 55 144 0.0 1.0 0.00 0.00 0.00 71 982.9
20260903120052 55 144 0.0 1.0 0.00 0.00 0.00 71 982.9
20260903115550 54 144 0.0 0.0 0.00 0.00 0.00 71 982.7
20260903115049 54 144 0.0 0.0 0.00 0.00 0.00 71 982.6
20260903114550 54 144 0.0 0.0 0.00 0.00 0.00 71 982.5
20260903114049 54 144 0.0 0.0 0.00 0.00 0.00 71 982.4
20260903113549 54 144 0.0 0.0 0.00 0.00 0.00 71 982.4
20260903113052 54 144 0.0 0.0 0.00 0.00 0.00 71 982.7
20260903112548 54 144 0.0 0.0 0.00 0.00 0.00 71 982.6
20260903112048 54 144 0.0 0.0 0.00 0.00 0.00 71 982.7
20260903111553 54 144 0.0 0.0 0.00 0.00 0.00 71 982.6
20260903111050 54 144 0.0 0.0 0.00 0.00 0.00 70 982.6
20260903110547 54 144 0.0 0.0 0.00 0.00 0.00 70 982.6
20260903110046 54 144 0.0 1.0 0.00 0.00 0.00 70 982.6
20260903105546 54 144 0.0 1.0 0.00 0.00 0.00 70 982.6
20260903105046 54 144 0.0 0.0 0.00 0.00 0.00 70 982.7
20260903104606 54 144 0.0 0.0 0.00 0.00 0.00 70 982.7
20260903104044 54 144 0.0 0.0 0.00 0.00 0.00 70 982.8
20260903103546 54 144 0.0 1.0 0.00 0.00 0.00 70 982.8
20260903103057 54 144 0.0 1.0 0.00 0.00 0.00 70 983.0
20260903102545 54 144 0.0 0.0 0.00 0.00 0.00 70 982.9
20260903102044 54 144 0.0 0.0 0.00 0.00 0.00 69 983.1
20260903101549 55 144 0.0 0.0 0.00 0.00 0.00 70 983.0
20260903101042 55 144 0.0 0.0 0.00 0.00 0.00 70 983.1
20260903100542 55 144 0.0 0.0 0.00 0.00 0.00 70 983.1
20260903100042 55 144 0.0 1.0 0.00 0.00 0.00 69 983.2
20260903095540 55 144 0.0 1.0 0.00 0.00 0.00 69 983.3
20260903095038 56 144 0.0 0.0 0.00 0.00 0.00 70 983.2
20260903094545 56 144 0.0 0.0 0.00 0.00 0.00 70 983.2
20260903094042 56 144 0.0 0.0 0.00 0.00 0.00 70 983.3
20260903093538 56 144 0.0 1.0 0.00 0.00 0.00 70 983.2
20260903093047 56 144 0.0 1.0 0.00 0.00 0.00 70 983.3
20260903092537 56 144 0.0 0.0 0.00 0.00 0.00 70 983.3
20260903092040 56 144 0.0 0.0 0.00 0.00 0.00 70 983.2
20260903091540 56 144 0.0 0.0 0.00 0.00 0.00 69 983.2
20260903091036 57 144 0.0 0.0 0.00 0.00 0.00 69 983.2
20260903090536 57 144 0.0 1.0 0.00 0.00 0.00 69 983.2
20260903090038 57 144 0.0 1.0 0.00 0.00 0.00 69 983.1
20260903085535 57 144 0.0 1.0 0.00 0.00 0.00 70 983.3
20260903085035 57 144 0.0 1.0 0.00 0.00 0.00 70 983.2
20260903084544 56 137 0.0 1.0 0.00 0.00 0.00 69 983.2
20260903084035 56 132 0.0 1.0 0.00 0.00 0.00 69 983.2
20260903083535 56 132 0.0 0.0 0.00 0.00 0.00 69 983.1
20260903083034 56 132 0.0 0.0 0.00 0.00 0.00 69 983.1
20260903082534 57 132 0.0 0.0 0.00 0.00 0.00 69 983.0
20260903082034 56 132 0.0 1.0 0.00 0.00 0.00 69 983.1
20260903081533 56 132 0.0 1.0 0.00 0.00 0.00 69 982.9
20260903081032 56 108 0.0 0.0 0.00 0.00 0.00 68 982.8
20260903080537 56 108 0.0 0.0 0.00 0.00 0.00 68 982.7
20260903080032 56 108 0.0 0.0 0.00 0.00 0.00 67 982.7
20260903075531 56 108 0.0 0.0 0.00 0.00 0.00 67 982.7
20260903075030 56 108 0.0 0.0 0.00 0.00 0.00 67 982.7
20260903074530 56 108 0.0 0.0 0.00 0.00 0.00 67 982.7
20260903074034 57 108 0.0 0.0 0.00 0.00 0.00 66 982.8
20260903073529 57 108 0.0 0.0 0.00 0.00 0.00 66 982.9
20260903073031 57 108 0.0 0.0 0.00 0.00 0.00 66 983.0
20260903072526 57 108 0.0 0.0 0.00 0.00 0.00 66 983.1
20260903072030 57 108 0.0 0.0 0.00 0.00 0.00 66 983.1
20260903071526 57 44 0.0 0.0 0.00 0.00 0.00 66 983.2
20260903071027 57 44 0.0 0.0 0.00 0.00 0.00 66 983.3
20260903070529 57 44 0.0 0.0 0.00 0.00 0.00 65 983.2
20260903070028 57 44 0.0 0.0 0.00 0.00 0.00 65 983.2
20260903065524 57 44 0.0 0.0 0.00 0.00 0.00 65 983.2
20260903065023 57 44 0.0 0.0 0.00 0.00 0.00 64 983.2
20260903064523 57 44 0.0 0.0 0.00 0.00 0.00 63 983.2
20260903064022 58 44 0.0 0.0 0.00 0.00 0.00 62 983.1
20260903063522 58 44 0.0 0.0 0.00 0.00 0.00 62 983.2
20260903063020 58 44 0.0 0.0 0.00 0.00 0.00 62 983.4
20260903062521 58 44 0.0 0.0 0.00 0.00 0.00 62 983.3
20260903062021 58 44 0.0 0.0 0.00 0.00 0.00 62 983.2
20260903061521 58 44 0.0 0.0 0.00 0.00 0.00 62 983.3
20260903061018 59 44 0.0 0.0 0.00 0.00 0.00 61 983.3
20260903060517 59 44 0.0 0.0 0.00 0.00 0.00 61 983.3
20260903060020 59 44 0.0 0.0 0.00 0.00 0.00 61 983.3
20260903055518 59 44 0.0 0.0 0.00 0.00 0.00 61 983.3
20260903055015 59 44 0.0 0.0 0.00 0.00 0.00 60 983.2
20260903054516 59 44 0.0 0.0 0.00 0.00 0.00 60 983.3
20260903054015 59 44 0.0 0.0 0.00 0.00 0.00 60 983.3
20260903053515 59 44 0.0 0.0 0.00 0.00 0.00 60 983.3
20260903053013 60 44 0.0 0.0 0.00 0.00 0.00 60 983.3
20260903052513 60 44 0.0 0.0 0.00 0.00 0.00 60 983.3
20260903052013 60 44 0.0 0.0 0.00 0.00 0.00 60 983.4
20260903051512 60 44 0.0 0.0 0.00 0.00 0.00 60 983.4
20260903051011 60 44 0.0 0.0 0.00 0.00 0.00 59 983.4
20260903050511 60 44 0.0 0.0 0.00 0.00 0.00 59 983.5
20260903050030 60 44 0.0 0.0 0.00 0.00 0.00 59 983.5
20260903045509 60 44 0.0 0.0 0.00 0.00 0.00 59 983.6
20260903045008 61 44 0.0 0.0 0.00 0.00 0.00 59 983.6
20260903044508 61 44 0.0 0.0 0.00 0.00 0.00 59 983.6
20260903044008 61 44 0.0 0.0 0.00 0.00 0.00 58 983.6
20260903043508 61 44 0.0 0.0 0.00 0.00 0.00 58 983.6
20260903043108 61 44 0.0 0.0 0.00 0.00 0.00 58 983.7
20260903042508 62 44 0.0 0.0 0.00 0.00 0.00 58 983.7
20260903042008 62 44 0.0 0.0 0.00 0.00 0.00 58 983.7
20260903041515 62 44 0.0 0.0 0.00 0.00 0.00 58 983.7
20260903041007 62 44 0.0 0.0 0.00 0.00 0.00 58 983.7
20260903040507 62 44 0.0 0.0 0.00 0.00 0.00 58 983.7
20260903040009 63 38 0.0 0.0 0.00 0.00 0.00 58 983.7
20260903035508 63 38 0.0 0.0 0.00 0.00 0.00 57 983.7
20260903035006 63 37 0.0 0.0 0.00 0.00 0.00 57 983.7
20260903034508 63 37 0.0 2.0 0.00 0.00 0.00 57 983.7
20260903034007 63 37 0.0 2.0 0.00 0.00 0.00 57 983.7
20260903033505 63 36 0.0 2.0 0.00 0.00 0.00 57 983.6
20260903033006 63 28 0.0 2.0 0.00 0.00 0.00 57 983.6
20260903032509 63 28 0.0 2.0 0.00 0.00 0.00 56 983.6
20260903032006 63 28 0.0 2.0 0.00 0.00 0.00 56 983.6
20260903031506 63 28 0.0 2.0 0.00 0.00 0.00 57 983.6
20260903031005 63 32 0.0 3.0 0.00 0.00 0.00 57 983.7
20260903030508 63 32 0.0 3.0 0.00 0.00 0.00 57 983.6
20260903030004 63 39 0.0 3.0 0.00 0.00 0.00 57 983.6
20260903025504 64 34 0.0 3.0 0.00 0.00 0.00 57 983.6
20260903025005 63 34 0.0 4.0 0.00 0.00 0.00 57 983.6
20260903024508 63 35 1.0 3.0 0.00 0.00 0.00 57 983.6
20260903024009 63 38 0.0 2.0 0.00 0.00 0.00 57 983.5
20260903023506 64 32 0.0 2.0 0.00 0.00 0.00 57 983.6
20260903023006 64 355 0.0 3.0 0.00 0.00 0.00 57 983.5
20260903022505 64 36 0.0 3.0 0.00 0.00 0.00 57 983.5
20260903022004 64 42 0.0 3.0 0.00 0.00 0.00 57 983.5
20260903021508 65 42 0.0 4.0 0.00 0.00 0.00 57 983.5
20260903021007 65 43 1.0 4.0 0.00 0.00 0.00 56 983.5
20260903020503 65 33 0.0 3.0 0.00 0.00 0.00 56 983.5
20260903020009 66 40 0.0 4.0 0.00 0.00 0.00 56 983.5
20260903015503 66 46 1.0 4.0 0.00 0.00 0.00 56 983.4
20260903015003 66 49 1.0 4.0 0.00 0.00 0.00 56 983.4
20260903014502 66 32 1.0 4.0 0.00 0.00 0.00 55 983.4
20260903014003 66 55 1.0 4.0 0.00 0.00 0.00 55 983.3
20260903013504 67 44 0.0 3.0 0.00 0.00 0.00 55 983.4
20260903013002 67 25 0.0 2.0 0.00 0.00 0.00 55 983.3
20260903012503 67 25 0.0 2.0 0.00 0.00 0.00 55 983.4
20260903012002 68 24 0.0 2.0 0.00 0.00 0.00 55 983.4
20260903011502 68 24 0.0 3.0 0.00 0.00 0.00 55 983.4
20260903011001 69 24 0.0 3.0 0.00 0.00 0.00 55 983.4
20260903010502 69 24 0.0 3.0 0.00 0.00 0.00 54 983.4
20260903010002 70 24 0.0 3.0 0.00 0.00 0.00 54 983.5
20260903005502 70 16 1.0 4.0 0.00 0.00 0.00 54 983.5
20260903005001 71 21 1.0 5.0 0.00 0.00 0.00 53 983.5
20260903004502 72 5 1.0 5.0 0.00 0.00 0.00 52 983.6
20260903004003 73 19 0.0 4.0 0.00 0.00 0.00 52 983.5
20260903003501 73 17 0.0 3.0 0.00 0.00 0.00 51 983.5
20260903003001 73 12 0.0 3.0 0.00 0.00 0.00 51 983.6
20260903002502 73 11 0.0 3.0 0.00 0.00 0.00 50 983.4
20260903002003 74 19 0.0 3.0 0.00 0.00 0.00 50 983.4
20260903001610 74 19 1.0 3.0 0.00 0.00 0.00 50 983.4
20260903001103 74 355 0.0 3.0 0.00 0.00 0.00 50 983.4
20260903000601 74 21 1.0 5.0 0.00 0.00 0.00 50 983.3
20260903000109 74 32 1.0 5.0 0.00 0.00 0.00 50 983.4
20260902235600 74 11 1.0 4.0 0.00 0.00 0.00 50 983.4
20260902235059 75 39 1.0 4.0 0.00 0.00 0.00 49 983.4
20260902234559 75 13 1.0 5.0 0.00 0.00 0.00 48 983.4
20260902234059 75 82 1.0 5.0 0.00 0.00 0.00 48 983.4
20260902234003 75 83 2.0 5.0 0.00 0.00 0.00 47 983.3
20260902233559 75 11 0.0 5.0 0.00 0.00 0.00 48 983.2
20260902233103 75 360 2.0 5.0 0.00 0.00 0.00 48 983.1
20260902232559 75 17 2.0 5.0 0.00 0.00 0.00 47 983.2
20260902232101 75 25 1.0 5.0 0.00 0.00 0.00 48 983.3
20260902231600 75 13 2.0 5.0 0.00 0.00 0.00 48 983.2
20260902231059 75 32 2.0 6.0 0.00 0.00 0.00 47 983.3
20260902230558 75 56 2.0 6.0 0.00 0.00 0.00 47 983.2
20260902230058 76 37 2.0 6.0 0.00 0.00 0.00 47 983.3
20260902225558 76 42 2.0 5.0 0.00 0.00 0.00 47 983.1
20260902225102 76 28 2.0 5.0 0.00 0.00 0.00 46 983.1
20260902224557 76 48 1.0 5.0 0.00 0.00 0.00 47 983.1
20260902224056 76 309 0.0 3.0 0.00 0.00 0.00 47 983.2
20260902223556 75 360 0.0 4.0 0.00 0.00 0.00 46 983.2
20260902223056 75 306 2.0 6.0 0.00 0.00 0.00 46 983.2
20260902222556 75 277 2.0 6.0 0.00 0.00 0.00 46 983.2
20260902222056 75 238 0.0 6.0 0.00 0.00 0.00 46 983.2
20260902221611 75 255 2.0 6.0 0.00 0.00 0.00 48 983.2
20260902221054 75 253 2.0 6.0 0.00 0.00 0.00 46 983.2
20260902220554 76 221 3.0 6.0 0.00 0.00 0.00 47 983.3
20260902220101 76 254 2.0 4.0 0.00 0.00 0.00 45 983.3
20260902215553 76 289 0.0 3.0 0.00 0.00 0.00 47 983.3
20260902215055 76 300 0.0 3.0 0.00 0.00 0.00 47 983.3
20260902214553 75 300 0.0 4.0 0.00 0.00 0.00 46 983.4
20260902214052 75 360 2.0 4.0 0.00 0.00 0.00 46 983.4
20260902213552 76 281 0.0 3.0 0.00 0.00 0.00 47 983.4
20260902213055 76 18 0.0 3.0 0.00 0.00 0.00 49 983.4
20260902212550 75 18 0.0 3.0 0.00 0.00 0.00 47 983.4
20260902212049 74 18 0.0 4.0 0.00 0.00 0.00 49 983.4
20260902211557 74 69 2.0 6.0 0.00 0.00 0.00 47 983.5
20260902211053 74 42 2.0 6.0 0.00 0.00 0.00 48 983.4
20260902210547 74 360 3.0 6.0 0.00 0.00 0.00 49 983.3
20260902210047 74 63 1.0 6.0 0.00 0.00 0.00 52 983.5
20260902205546 74 276 1.0 6.0 0.00 0.00 0.00 52 983.7
20260902205045 74 344 3.0 6.0 0.00 0.00 0.00 50 983.9
20260902204605 73 55 3.0 6.0 0.00 0.00 0.00 51 983.9
20260902204043 73 28 3.0 5.0 0.00 0.00 0.00 51 983.9
20260902203544 73 44 2.0 6.0 0.00 0.00 0.00 51 983.8
20260902203046 73 39 2.0 6.0 0.00 0.00 0.00 51 983.9
20260902202547 73 46 2.0 4.0 0.00 0.00 0.00 51 983.8
20260902202043 73 90 2.0 9.0 0.00 0.00 0.00 50 983.9
20260902201545 73 11 3.0 9.0 0.00 0.00 0.00 50 983.8
20260902201042 73 5 1.0 7.0 0.00 0.00 0.00 49 983.9
20260902200542 73 302 3.0 5.0 0.00 0.00 0.00 50 983.9
20260902200042 73 343 0.0 4.0 0.00 0.00 0.00 50 983.9
20260902195546 73 350 2.0 8.0 0.00 0.00 0.00 50 984.0
20260902195041 73 348 4.0 9.0 0.00 0.00 0.00 51 984.1
20260902194554 73 62 3.0 9.0 0.00 0.00 0.00 51 984.1
20260902194041 73 98 1.0 6.0 0.00 0.00 0.00 50 984.0
20260902193541 73 42 2.0 5.0 0.00 0.00 0.00 50 984.1
20260902193044 73 341 2.0 6.0 0.00 0.00 0.00 51 984.2
20260902192540 73 355 4.0 6.0 0.00 0.00 0.00 51 984.2
20260902192040 73 335 4.0 6.0 0.00 0.00 0.00 50 984.2
20260902191550 73 61 1.0 3.0 0.00 0.00 0.00 50 984.2
20260902191043 73 61 1.0 4.0 0.00 0.00 0.00 49 984.2
20260902190539 73 74 1.0 5.0 0.00 0.00 0.00 49 984.4
20260902190038 73 46 1.0 5.0 0.00 0.00 0.00 50 984.4
20260902185538 73 55 0.0 4.0 0.00 0.00 0.00 50 984.5
20260902185038 73 49 2.0 5.0 0.00 0.00 0.00 50 984.5
20260902184540 73 16 3.0 5.0 0.00 0.00 0.00 50 984.4
20260902184036 73 28 1.0 4.0 0.00 0.00 0.00 50 984.6
20260902183536 72 88 0.0 5.0 0.00 0.00 0.00 50 984.5
20260902183043 72 88 2.0 5.0 0.00 0.00 0.00 50 984.6
20260902182538 72 67 1.0 5.0 0.00 0.00 0.00 50 984.7
20260902182035 72 80 3.0 5.0 0.00 0.00 0.00 49 984.5
20260902181535 72 69 2.0 6.0 0.00 0.00 0.00 49 984.7
20260902181034 72 65 1.0 6.0 0.00 0.00 0.00 50 984.6
20260902180534 72 65 3.0 5.0 0.00 0.00 0.00 48 984.6
20260902180034 72 360 1.0 6.0 0.00 0.00 0.00 50 984.6